NAVSTAR 65 (USA 213) 1 36585U 10022A 21110.57378088 .00000014 00000-0 00000-0 0 9998 2 36585 55.0882 284.5663 0097421 54.3544 124.7764 2.00567543 79817 DELTA 4 R/B 1 36586U 10022B 21111.23868851 .00000004 00000-0 00000-0 0 9994 2 36586 55.0303 299.7271 0229016 113.4122 63.0668 1.90939413 76020